Regional Weather Roundup
Issued by NWS

Home | Current Version | Previous Version | Text Only | Print | Product List | Glossary On
Versions: 1 2 3 4 5 6 7 8 9 10 11 12 13 14 15 16 17 18 19 20 21 22 23 24 25 26 27
000
ASUS46 KSEW 250910
RWRWA

WASHINGTON REGIONAL WEATHER ROUNDUP
NATIONAL WEATHER SERVICE SEATTLE WA
200 AM PDT TUE APR 25 2017

NOTE:"FAIR" INDICATES FEW OR NO CLOUDS BELOW 12,000 FEET WITH NO
SIGNIFICANT WEATHER AND/OR OBSTRUCTIONS TO VISIBILITY.

WAZ507-509-555>559-251000-
SEATTLE, TACOMA, EVERETT, AND VICINITY

CITY           SKY/WX    TMP DP  RH WIND       PRES   REMARKS
EVERETT        CLOUDY    49  45  86 SE9       29.94R
BOEING FIELD   CLOUDY    50  46  86 S9        29.95S
RENTON         CLOUDY    50  45  83 SE7       29.95S
SEATAC AIRPORT CLOUDY    49  44  83 S8        29.95S
JBLM-MCCHORD   MOCLDY    43  43 100 S7        29.96R
PUYALLUP         N/A     46  46 100 CALM      29.96S
BREMERTON      NOT AVBL
JBLM-FT LEWIS  NOT AVBL
TACOMA NARROWS CLOUDY    46  45  96 S8        29.96R
$$

WAZ001-503-506-510-514-515-251000-
NORTH INTERIOR

CITY           SKY/WX    TMP DP  RH WIND       PRES   REMARKS
BELLINGHAM     CLOUDY    50  45  83 S10       29.89S
FRIDAY HARBOR  CLEAR     48  46  93 S6        29.91R
EASTSOUND      CLEAR     48  46  93 S15G21    29.88R
PORT ANGELES   CLEAR     41  39  93 SW8       29.92R
EDIZ HOOK      FAIR      46  41  81 SW3       29.92R
PORT TOWNSEND  MOCLDY    43  41  93 CALM      29.93S
NAS WHIDBEY    MOCLDY    49  42  77 SE8       29.96R
ARLINGTON      CLOUDY    46  37  71 CALM      29.96S
BURLINGTON     CLEAR     46  45  93 S5        29.93S
$$

WAZ020-022-039-040-504-511-512-251000-
SOUTHWEST INTERIOR

CITY           SKY/WX    TMP DP  RH WIND       PRES   REMARKS
SHELTON        PTCLDY    46  44  93 SW10      29.94R
OLYMPIA        MOCLDY    46  44  93 SW9       29.97R
CHEHALIS       CLOUDY    46  46 100 CALM      29.98R
KELSO          CLOUDY    46  45  96 SE5       30.02R
VANCOUVER      MOCLDY    48  46  93 VRB3      30.01S
SCAPPOOSE, OR  MOCLDY    40  40 100 CALM      30.00S
PORTLAND, OR   CLOUDY    48  44  86 S9        30.01F
$$

WAZ021-516-517-251000-
WASHINGTON COAST

CITY           SKY/WX    TMP DP  RH WIND       PRES   REMARKS
FORKS          MOCLDY    43  42  97 SE5       29.94R
HOQUIAM        CLOUDY    48  46  93 S8        29.97R
ASTORIA, OR    LGT RAIN  45  42  89 SE5       29.99R
$$

WAZ019-023-024-040-567>569-251000-
CASCADE MOUNTAINS AND COLUMBIA GORGE

CITY           SKY/WX    TMP DP  RH WIND       PRES   REMARKS
STAMPEDE PASS  FOG       33  33 100 VRB3      29.88S VSB 1/4
TROUTDALE, OR  CLOUDY    49  45  86 S6        30.01S
THE DALLES, OR CLOUDY    50  41  71 NW14      29.94R
$$

WAZ026-027-041>044-520-521-251000-
EAST SLOPES

CITY           SKY/WX    TMP DP  RH WIND       PRES   REMARKS
OMAK           MOCLDY    42  35  76 W3        29.81R
WENATCHEE      CLOUDY    49  36  61 NW9       29.82S
ELLENSBURG     PTCLDY    45  35  68 NW15      29.85S
YAKIMA         CLEAR     47  35  63 N7        29.86R
SUNNYSIDE ARPT SUNNY     44  37  73 SW5       29.86R
$$

WAZ028-034-035-251000-
COLUMBIA BASIN

CITY           SKY/WX    TMP DP  RH WIND       PRES   REMARKS
EPHRATA        CLEAR     47  34  60 NW9       29.81R
MOSES LAKE     CLEAR     41  38  89 S7        29.82R
PASCO          CLOUDY    50  41  71 SW12      29.86R
HERMISTON, OR  CLOUDY    48  44  86 SW14G21   29.87R
$$

WAZ036>038-251000-
NORTHEAST WASHINGTON

CITY           SKY/WX    TMP DP  RH WIND       PRES   REMARKS
SPOKANE GEIGER LGT RAIN  44  40  85 SW13      29.79R
SPOKANE FELTS  CLOUDY    46  42  86 SW5       29.81R
FAIRCHILD AFB  CLOUDY    43  43  99 SW10      29.79R
COEURDALENE,ID CLOUDY    42  40  92 S6        29.80R
DEER PARK      CLOUDY    37  34  89 CALM      29.80R
$$

WAZ029>033-251000-
SOUTHEAST WASHINGTON

CITY           SKY/WX    TMP DP  RH WIND       PRES   REMARKS
PULLMAN        LGT RAIN  43  41  93 W13       29.83R
LEWISTON, ID   LGT RAIN  47  43  86 W6        29.83R
WALLA WALLA    CLOUDY    47  42  83 S10       29.88R
PENDLETON, OR  CLOUDY    45  39  79 W22       29.86R
$$




USA.gov is the U.S. government's official web portal to all federal, state and local government web resources and services.